• In Russia
  • List of Countries
  • For 7 days
  • Water Temperature
  • Satellite Maps
  • Weather Map
  • Weather Widgets
  • user-avatar
    Login

    Hourly Weather Djelfa

    Today, 19 February, Monday

    Time Temperature Precipitation Wind Pressure Humidity
    00:00 +6°C° 0 mm 0 mps 662 mmHg 86%
    01:00 +5°C° 0 mm 0 mps 662 mmHg 87%
    02:00 +6°C° 0 mm 1 mps 662 mmHg 87%
    03:00 +6°C° 0 mm 1 mps 661 mmHg 88%
    04:00 +6°C° 0 mm 1 mps 661 mmHg 88%
    05:00 +6°C° 0 mm 1 mps 661 mmHg 88%
    06:00 +6°C° 0 mm 1 mps 661 mmHg 87%
    07:00 +6°C° 0 mm 2 mps 662 mmHg 80%
    08:00 +7°C° 0 mm 2 mps 662 mmHg 73%
    09:00 +9°C° 0 mm 3 mps 662 mmHg 66%
    10:00 +10°C° 0.1 mm 4 mps 662 mmHg 59%
    11:00 +11°C° 0.1 mm 4 mps 662 mmHg 52%
    12:00 +12°C° 0.1 mm 5 mps 662 mmHg 45%
    13:00 +12°C° 0.1 mm 5 mps 662 mmHg 43%
    14:00 +13°C° 0.1 mm 5 mps 662 mmHg 40%
    15:00 +13°C° 0.1 mm 5 mps 661 mmHg 37%
    16:00 +12°C° 0.1 mm 5 mps 661 mmHg 42%
    17:00 +11°C° 0.1 mm 4 mps 661 mmHg 46%
    18:00 +10°C° 0.1 mm 3 mps 660 mmHg 51%
    19:00 +9°C° 0.2 mm 3 mps 660 mmHg 57%
    20:00 +9°C° 0.2 mm 3 mps 660 mmHg 64%
    21:00 +8°C° 0.2 mm 3 mps 660 mmHg 70%
    22:00 +7°C° 0 mm 2 mps 660 mmHg 73%
    23:00 +7°C° 0 mm 2 mps 660 mmHg 76%

    Tomorrow, 20 February, Tuesday

    Time Temperature Precipitation Wind Pressure Humidity
    00:00 +6°C° 0 mm 2 mps 660 mmHg 79%
    01:00 +6°C° 0 mm 2 mps 660 mmHg 83%
    02:00 +5°C° 0 mm 2 mps 660 mmHg 86%
    03:00 +5°C° 0 mm 2 mps 660 mmHg 89%
    04:00 +5°C° 0 mm 2 mps 659 mmHg 91%
    05:00 +4°C° 0 mm 2 mps 659 mmHg 92%
    06:00 +4°C° 0 mm 2 mps 659 mmHg 93%
    07:00 +4°C° 0 mm 3 mps 660 mmHg 87%
    08:00 +4°C° 0 mm 4 mps 660 mmHg 81%
    09:00 +5°C° 0 mm 5 mps 660 mmHg 75%
    10:00 +5°C° 0 mm 6 mps 661 mmHg 65%
    11:00 +7°C° 0 mm 6 mps 661 mmHg 55%
    12:00 +8°C° 0 mm 6 mps 661 mmHg 45%
    13:00 +9°C° 0 mm 7 mps 660 mmHg 43%
    14:00 +9°C° 0 mm 7 mps 660 mmHg 40%
    15:00 +9°C° 0 mm 7 mps 660 mmHg 38%
    16:00 +9°C° 0 mm 7 mps 659 mmHg 43%
    17:00 +8°C° 0 mm 6 mps 659 mmHg 49%
    18:00 +7°C° 0 mm 6 mps 659 mmHg 54%
    19:00 +6°C° 0 mm 5 mps 659 mmHg 60%
    20:00 +6°C° 0 mm 5 mps 659 mmHg 66%
    21:00 +5°C° 0 mm 5 mps 659 mmHg 72%
    22:00 +3°C° 0 mm 5 mps 659 mmHg 77%
    23:00 +3°C° 0 mm 5 mps 659 mmHg 81%

    Day after tomorrow, 21 February, Wednesday

    Time Temperature Precipitation Wind Pressure Humidity
    00:00 +3°C° 0 mm 5 mps 659 mmHg 85%
    01:00 +2°C° 0 mm 5 mps 658 mmHg 87%
    02:00 +2°C° 0 mm 5 mps 658 mmHg 89%
    03:00 +2°C° 0 mm 5 mps 657 mmHg 90%
    04:00 +2°C° 0 mm 5 mps 657 mmHg 90%
    05:00 +1°C° 0 mm 5 mps 657 mmHg 89%
    06:00 +1°C° 0 mm 4 mps 656 mmHg 88%
    07:00 +2°C° 0 mm 5 mps 657 mmHg 81%
    08:00 +5°C° 0 mm 5 mps 657 mmHg 74%
    09:00 +6°C° 0 mm 5 mps 657 mmHg 68%
    10:00 +7°C° 0 mm 5 mps 657 mmHg 61%
    11:00 +8°C° 0 mm 5 mps 656 mmHg 55%
    12:00 +9°C° 0 mm 5 mps 656 mmHg 48%
    13:00 +10°C° 0.1 mm 6 mps 656 mmHg 47%
    14:00 +10°C° 0.1 mm 6 mps 655 mmHg 47%
    15:00 +10°C° 0.1 mm 6 mps 655 mmHg 46%
    16:00 +9°C° 0.1 mm 6 mps 654 mmHg 49%
    17:00 +9°C° 0.1 mm 6 mps 654 mmHg 52%
    18:00 +8°C° 0.1 mm 5 mps 654 mmHg 55%
    19:00 +7°C° 0 mm 5 mps 654 mmHg 60%
    20:00 +6°C° 0 mm 5 mps 654 mmHg 66%
    21:00 +5°C° 0 mm 5 mps 654 mmHg 71%
    22:00 +5°C° 0 mm 5 mps 654 mmHg 74%
    23:00 +3°C° 0 mm 5 mps 654 mmHg 76%

    22 February, Thursday

    Time Temperature Precipitation Wind Pressure Humidity
    00:00 +3°C° 0 mm 5 mps 653 mmHg 78%
    01:00 +2°C° 0 mm 5 mps 653 mmHg 81%
    02:00 +2°C° 0 mm 5 mps 653 mmHg 83%
    03:00 +2°C° 0 mm 5 mps 652 mmHg 85%
    04:00 +1°C° 0 mm 5 mps 652 mmHg 85%
    05:00 +1°C° 0 mm 5 mps 652 mmHg 85%
    06:00 +1°C° 0 mm 5 mps 652 mmHg 84%
    07:00 +1°C° 0 mm 5 mps 653 mmHg 78%
    08:00 +1°C° 0 mm 5 mps 653 mmHg 71%
    09:00 +2°C° 0 mm 5 mps 653 mmHg 64%
    10:00 +3°C° 0 mm 6 mps 653 mmHg 58%
    11:00 +4°C° 0 mm 6 mps 653 mmHg 51%
    12:00 +5°C° 0 mm 6 mps 653 mmHg 44%
    13:00 +5°C° 0 mm 6 mps 653 mmHg 42%
    14:00 +7°C° 0 mm 6 mps 653 mmHg 41%
    15:00 +6°C° 0 mm 7 mps 652 mmHg 39%
    16:00 +5°C° 0 mm 6 mps 652 mmHg 41%
    17:00 +6°C° 0 mm 5 mps 652 mmHg 44%
    18:00 +5°C° 0 mm 4 mps 652 mmHg 47%
    19:00 +4°C° 0 mm 3 mps 653 mmHg 50%
    20:00 +5°C° 0 mm 2 mps 653 mmHg 54%
    21:00 +4°C° 0 mm 2 mps 653 mmHg 57%
    22:00 +4°C° 0 mm 2 mps 653 mmHg 58%
    23:00 +4°C° 0 mm 2 mps 653 mmHg 59%

    23 February, Friday

    Time Temperature Precipitation Wind Pressure Humidity
    00:00 +3°C° 0 mm 2 mps 653 mmHg 60%
    01:00 +3°C° 0 mm 2 mps 653 mmHg 62%
    02:00 +2°C° 0 mm 3 mps 652 mmHg 63%
    03:00 +2°C° 0 mm 3 mps 652 mmHg 64%
    04:00 +1°C° 0 mm 3 mps 652 mmHg 67%
    05:00 +1°C° 0 mm 3 mps 652 mmHg 71%
    06:00 +1°C° 0 mm 3 mps 652 mmHg 74%
    07:00 +1°C° 0 mm 4 mps 653 mmHg 68%
    08:00 +3°C° 0 mm 5 mps 654 mmHg 63%
    09:00 +5°C° 0 mm 5 mps 654 mmHg 58%
    10:00 +6°C° 0 mm 5 mps 654 mmHg 53%
    11:00 +8°C° 0 mm 6 mps 654 mmHg 48%
    12:00 +9°C° 0 mm 6 mps 654 mmHg 44%
    13:00 +9°C° 0 mm 6 mps 654 mmHg 42%
    14:00 +10°C° 0 mm 5 mps 654 mmHg 41%
    15:00 +10°C° 0 mm 5 mps 653 mmHg 39%
    16:00 +11°C° 0.1 mm 4 mps 653 mmHg 43%
    17:00 +10°C° 0.1 mm 3 mps 653 mmHg 46%
    18:00 +10°C° 0.1 mm 2 mps 653 mmHg 50%
    19:00 +9°C° 0.2 mm 2 mps 653 mmHg 53%
    20:00 +9°C° 0.2 mm 3 mps 654 mmHg 56%
    21:00 +8°C° 0.2 mm 3 mps 654 mmHg 59%
    22:00 +8°C° 0.1 mm 3 mps 654 mmHg 59%
    23:00 +8°C° 0.1 mm 3 mps 654 mmHg 58%

    24 February, Saturday

    Time Temperature Precipitation Wind Pressure Humidity
    00:00 +7°C° 0.1 mm 3 mps 654 mmHg 58%
    01:00 +7°C° 0 mm 3 mps 653 mmHg 59%
    02:00 +5°C° 0 mm 3 mps 653 mmHg 60%
    03:00 +5°C° 0 mm 3 mps 652 mmHg 62%
    04:00 +4°C° 0 mm 3 mps 652 mmHg 63%
    05:00 +5°C° 0 mm 2 mps 652 mmHg 65%
    06:00 +4°C° 0 mm 2 mps 652 mmHg 66%
    07:00 +5°C° 0 mm 2 mps 653 mmHg 60%
    08:00 +7°C° 0 mm 2 mps 653 mmHg 55%
    09:00 +8°C° 0 mm 2 mps 654 mmHg 49%
    10:00 +10°C° 0 mm 3 mps 654 mmHg 44%
    11:00 +11°C° 0 mm 4 mps 655 mmHg 39%
    12:00 +13°C° 0 mm 5 mps 655 mmHg 33%
    13:00 +14°C° 0 mm 5 mps 655 mmHg 32%
    14:00 +14°C° 0 mm 5 mps 655 mmHg 30%
    15:00 +15°C° 0 mm 5 mps 655 mmHg 29%
    16:00 +13°C° 0 mm 5 mps 655 mmHg 34%
    17:00 +12°C° 0 mm 4 mps 655 mmHg 40%
    18:00 +11°C° 0 mm 4 mps 655 mmHg 45%
    19:00 +11°C° 0 mm 3 mps 655 mmHg 48%
    20:00 +10°C° 0 mm 2 mps 655 mmHg 51%
    21:00 +11°C° 0 mm 1 mps 656 mmHg 55%
    22:00 +10°C° 0 mm 1 mps 656 mmHg 58%
    23:00 +9°C° 0 mm 1 mps 656 mmHg 61%
    Show more